| time (UTC) | temp F | wind direction | speed MPH | gust MPH | rain 1hr in | rain 24hr in | rain mn in | humidity % | barometer mb |
| 20260504172843 | 63 | 191 | 5.0 | 13.0 | 0.00 | 0.00 | 0.00 | 94 | 1016.3 |
| 20260504172340 | 64 | 189 | 6.0 | 14.0 | 0.00 | 0.00 | 0.00 | 94 | 1016.3 |
| 20260504171835 | 64 | 186 | 3.0 | 17.0 | 0.00 | 0.00 | 0.00 | 93 | 1016.4 |
| 20260504171333 | 64 | 204 | 9.0 | 12.0 | 0.00 | 0.00 | 0.00 | 93 | 1016.5 |
| 20260504170830 | 64 | 181 | 7.0 | 13.0 | 0.00 | 0.00 | 0.00 | 93 | 1016.4 |
| 20260504170327 | 64 | 220 | 7.0 | 13.0 | 0.00 | 0.00 | 0.00 | 93 | 1016.5 |
| 20260504160245 | 64 | 207 | 9.0 | 14.0 | 0.00 | 0.00 | 0.00 | 95 | 1016.4 |
| 20260504150710 | 65 | 240 | 13.0 | 17.0 | 0.00 | 0.00 | 0.00 | 92 | 1015.6 |
| 20260504150207 | 65 | 204 | 9.0 | 15.0 | 0.00 | 0.00 | 0.00 | 92 | 1015.7 |
| 20260504141136 | 65 | 207 | 8.0 | 14.0 | 0.00 | 0.00 | 0.00 | 95 | 1016.0 |
| 20260504140633 | 65 | 247 | 5.0 | 18.0 | 0.00 | 0.00 | 0.00 | 95 | 1016.1 |
| 20260504140129 | 65 | 216 | 3.0 | 14.0 | 0.00 | 0.00 | 0.00 | 95 | 1016.1 |
| 20260504130557 | 66 | 178 | 8.0 | 13.0 | 0.00 | 0.00 | 0.00 | 97 | 1014.7 |
| 20260504110445 | 69 | 184 | 5.0 | 6.0 | 0.00 | 0.00 | 0.00 | 91 | 1014.2 |
| 20260504100401 | 72 | 218 | 4.0 | 11.0 | 0.00 | 0.00 | 0.00 | 86 | 1015.4 |
| 20260504081754 | 74 | 199 | 2.0 | 7.0 | 0.00 | 0.00 | 0.00 | 81 | 1014.7 |
| 20260504081251 | 72 | 239 | 6.0 | 13.0 | 0.00 | 0.00 | 0.00 | 83 | 1015.0 |
| 20260504080748 | 73 | 207 | 5.0 | 9.0 | 0.00 | 0.00 | 0.00 | 81 | 1014.8 |
| 20260504080244 | 73 | 181 | 5.0 | 7.0 | 0.00 | 0.00 | 0.00 | 82 | 1015.0 |
| 20260504070212 | 71 | 209 | 5.0 | 7.0 | 0.00 | 0.00 | 0.00 | 83 | 1014.7 |
| 20260504060132 | 70 | 201 | 3.0 | 10.0 | 0.00 | 0.00 | 0.00 | 85 | 1014.4 |
| 20260504050600 | 68 | 244 | 0.0 | 11.0 | 0.00 | 0.00 | 0.00 | 90 | 1014.2 |
| 20260504045554 | 68 | 174 | 1.0 | 11.0 | 0.00 | 0.00 | 0.00 | 90 | 1014.0 |
| 20260504045049 | 67 | 221 | 2.0 | 3.0 | 0.00 | 0.00 | 0.00 | 92 | 1014.0 |
| 20260504044547 | 67 | 229 | 1.0 | 4.0 | 0.00 | 0.00 | 0.00 | 92 | 1014.0 |
| 20260504044044 | 67 | 316 | 2.0 | 4.0 | 0.00 | 0.00 | 0.00 | 91 | 1013.9 |
| 20260504043541 | 67 | 271 | 3.0 | 4.0 | 0.00 | 0.00 | 0.00 | 91 | 1014.0 |
| 20260504043038 | 67 | 201 | 2.0 | 4.0 | 0.00 | 0.00 | 0.00 | 90 | 1013.7 |
| 20260504042535 | 68 | 272 | 4.0 | 6.0 | 0.00 | 0.00 | 0.00 | 90 | 1013.8 |
| 20260504042032 | 68 | 238 | 0.0 | 4.0 | 0.00 | 0.00 | 0.00 | 91 | 1013.8 |
| 20260504041527 | 67 | 199 | 3.0 | 5.0 | 0.00 | 0.00 | 0.00 | 90 | 1013.9 |
| 20260504041024 | 67 | 272 | 6.0 | 8.0 | 0.00 | 0.00 | 0.00 | 90 | 1013.8 |
| 20260504040522 | 68 | 249 | 4.0 | 10.0 | 0.00 | 0.00 | 0.00 | 90 | 1013.8 |
| 20260504040018 | 68 | 243 | 10.0 | 10.0 | 0.00 | 0.00 | 0.00 | 90 | 1013.9 |
| 20260504035515 | 68 | 246 | 3.0 | 7.0 | 0.00 | 0.00 | 0.00 | 89 | 1013.9 |
| 20260504035011 | 68 | 278 | 3.0 | 9.0 | 0.00 | 0.00 | 0.00 | 89 | 1013.9 |
| 20260504034509 | 68 | 233 | 6.0 | 13.0 | 0.00 | 0.00 | 0.00 | 90 | 1013.9 |
| 20260504034006 | 67 | 268 | 7.0 | 9.0 | 0.00 | 0.00 | 0.00 | 90 | 1014.1 |
| 20260504033504 | 67 | 256 | 7.0 | 9.0 | 0.00 | 0.00 | 0.00 | 91 | 1014.0 |
| 20260504033001 | 67 | 258 | 5.0 | 7.0 | 0.00 | 0.00 | 0.00 | 90 | 1013.9 |
| 20260504032458 | 67 | 227 | 2.0 | 4.0 | 0.00 | 0.00 | 0.00 | 89 | 1014.0 |
| 20260504031954 | 67 | 264 | 4.0 | 5.0 | 0.00 | 0.00 | 0.00 | 88 | 1013.9 |
| 20260504031451 | 67 | 258 | 3.0 | 10.0 | 0.00 | 0.00 | 0.00 | 87 | 1013.8 |
| 20260504030948 | 67 | 236 | 9.0 | 9.0 | 0.00 | 0.00 | 0.00 | 87 | 1013.8 |
| 20260504030445 | 67 | 235 | 5.0 | 9.0 | 0.00 | 0.00 | 0.00 | 87 | 1014.1 |
| 20260504025940 | 67 | 234 | 5.0 | 8.0 | 0.00 | 0.00 | 0.00 | 86 | 1014.0 |
| 20260504025438 | 67 | 271 | 5.0 | 8.0 | 0.00 | 0.00 | 0.00 | 85 | 1014.1 |
| 20260504024935 | 67 | 259 | 2.0 | 6.0 | 0.00 | 0.00 | 0.00 | 84 | 1014.2 |
| 20260504024432 | 68 | 246 | 3.0 | 7.0 | 0.00 | 0.00 | 0.00 | 83 | 1014.1 |
| 20260504023929 | 68 | 240 | 2.0 | 10.0 | 0.00 | 0.00 | 0.00 | 82 | 1014.0 |
| 20260504023425 | 68 | 241 | 4.0 | 7.0 | 0.00 | 0.00 | 0.00 | 80 | 1013.8 |
| 20260504022921 | 67 | 220 | 8.0 | 10.0 | 0.00 | 0.00 | 0.00 | 79 | 1013.9 |
| 20260504022417 | 68 | 223 | 9.0 | 11.0 | 0.00 | 0.00 | 0.00 | 77 | 1013.9 |
| 20260504021914 | 68 | 230 | 6.0 | 8.0 | 0.00 | 0.00 | 0.00 | 75 | 1013.9 |
| 20260504021411 | 68 | 232 | 8.0 | 11.0 | 0.00 | 0.00 | 0.00 | 73 | 1014.0 |
| 20260504020909 | 68 | 229 | 10.0 | 10.0 | 0.00 | 0.00 | 0.00 | 70 | 1014.1 |
| 20260504020405 | 68 | 225 | 5.0 | 9.0 | 0.00 | 0.00 | 0.00 | 69 | 1014.0 |
| 20260504015901 | 69 | 239 | 7.0 | 12.0 | 0.00 | 0.00 | 0.00 | 66 | 1014.2 |
| 20260504015357 | 69 | 205 | 5.0 | 8.0 | 0.00 | 0.00 | 0.00 | 64 | 1014.1 |
| 20260504014853 | 69 | 243 | 9.0 | 12.0 | 0.00 | 0.00 | 0.00 | 64 | 1014.2 |
| 20260504014350 | 69 | 221 | 9.0 | 10.0 | 0.00 | 0.00 | 0.00 | 64 | 1013.9 |
| 20260504013847 | 69 | 188 | 7.0 | 11.0 | 0.00 | 0.00 | 0.00 | 64 | 1014.0 |
| 20260504013345 | 67 | 251 | 4.0 | 6.0 | 0.00 | 0.00 | 0.00 | 65 | 1014.2 |
| 20260504012842 | 65 | 124 | 0.0 | 4.0 | 0.00 | 0.00 | 0.00 | 69 | 1014.2 |
| 20260504012339 | 62 | 213 | 0.0 | 2.0 | 0.00 | 0.00 | 0.00 | 74 | 1014.0 |
| 20260504011837 | 60 | 49 | 0.0 | 2.0 | 0.00 | 0.00 | 0.00 | 78 | 1014.2 |
| 20260504011333 | 61 | 107 | 0.0 | 2.0 | 0.00 | 0.00 | 0.00 | 77 | 1014.0 |
| 20260504010829 | 61 | 149 | 0.0 | 1.0 | 0.00 | 0.00 | 0.00 | 76 | 1014.1 |
| 20260504010325 | 62 | 173 | 2.0 | 2.0 | 0.00 | 0.00 | 0.00 | 75 | 1014.3 |
| 20260504005821 | 62 | 80 | 0.0 | 3.0 | 0.00 | 0.00 | 0.00 | 74 | 1014.0 |
| 20260504005319 | 63 | 120 | 2.0 | 4.0 | 0.00 | 0.00 | 0.00 | 73 | 1014.1 |
| 20260504004816 | 63 | 56 | 0.0 | 2.0 | 0.00 | 0.00 | 0.00 | 71 | 1014.2 |
| 20260504004314 | 63 | 53 | 4.0 | 4.0 | 0.00 | 0.00 | 0.00 | 71 | 1014.2 |
| 20260504003810 | 64 | 56 | 0.0 | 4.0 | 0.00 | 0.00 | 0.00 | 70 | 1014.0 |
| 20260504003307 | 65 | 133 | 0.0 | 1.0 | 0.00 | 0.00 | 0.00 | 66 | 1014.0 |
| 20260504002803 | 66 | 204 | 2.0 | 3.0 | 0.00 | 0.00 | 0.00 | 64 | 1014.2 |
| 20260504002300 | 67 | 232 | 1.0 | 3.0 | 0.00 | 0.00 | 0.00 | 62 | 1014.2 |
| 20260504001758 | 64 | 283 | 2.0 | 4.0 | 0.00 | 0.00 | 0.00 | 66 | 1014.3 |
| 20260504001255 | 64 | 255 | 1.0 | 3.0 | 0.00 | 0.00 | 0.00 | 69 | 1014.4 |
| 20260504000752 | 64 | 217 | 2.0 | 3.0 | 0.00 | 0.00 | 0.00 | 69 | 1014.3 |
| 20260504000249 | 64 | 184 | 1.0 | 2.0 | 0.00 | 0.00 | 0.00 | 68 | 1014.5 |
| 20260503235747 | 66 | 269 | 0.0 | 4.0 | 0.00 | 0.00 | 0.00 | 64 | 1014.4 |
| 20260503235244 | 66 | 228 | 2.0 | 2.0 | 0.00 | 0.00 | 0.00 | 64 | 1014.6 |
| 20260503234741 | 67 | 239 | 2.0 | 3.0 | 0.00 | 0.00 | 0.00 | 63 | 1014.6 |
| 20260503234239 | 67 | 225 | 2.0 | 4.0 | 0.00 | 0.00 | 0.00 | 62 | 1014.5 |
| 20260503233736 | 69 | 250 | 2.0 | 3.0 | 0.00 | 0.00 | 0.00 | 59 | 1014.6 |
| 20260503233232 | 69 | 287 | 1.0 | 3.0 | 0.00 | 0.00 | 0.00 | 59 | 1014.5 |
| 20260503232729 | 69 | 250 | 2.0 | 4.0 | 0.00 | 0.00 | 0.00 | 60 | 1014.6 |
| 20260503232226 | 68 | 252 | 4.0 | 5.0 | 0.00 | 0.00 | 0.00 | 60 | 1014.6 |
| 20260503231725 | 68 | 230 | 4.0 | 5.0 | 0.00 | 0.00 | 0.00 | 61 | 1014.5 |
| 20260503231221 | 68 | 247 | 1.0 | 4.0 | 0.00 | 0.00 | 0.00 | 62 | 1014.3 |
| 20260503230717 | 68 | 219 | 4.0 | 4.0 | 0.00 | 0.00 | 0.00 | 62 | 1014.4 |
| 20260503230214 | 67 | 263 | 3.0 | 4.0 | 0.00 | 0.00 | 0.00 | 64 | 1014.6 |
| 20260503225711 | 66 | 263 | 2.0 | 3.0 | 0.00 | 0.00 | 0.00 | 66 | 1014.7 |
| 20260503225206 | 66 | 244 | 2.0 | 5.0 | 0.00 | 0.00 | 0.00 | 67 | 1014.5 |
| 20260503224704 | 65 | 257 | 2.0 | 2.0 | 0.00 | 0.00 | 0.00 | 70 | 1014.5 |
| 20260503224201 | 64 | 226 | 0.0 | 3.0 | 0.00 | 0.00 | 0.00 | 71 | 1014.6 |
| 20260503223659 | 64 | 235 | 1.0 | 3.0 | 0.00 | 0.00 | 0.00 | 72 | 1014.8 |
| 20260503223156 | 64 | 248 | 2.0 | 2.0 | 0.00 | 0.00 | 0.00 | 73 | 1014.7 |
| 20260503222652 | 64 | 255 | 2.0 | 3.0 | 0.00 | 0.00 | 0.00 | 74 | 1014.8 |
| 20260503222150 | 64 | 270 | 2.0 | 2.0 | 0.00 | 0.00 | 0.00 | 73 | 1014.7 |
| 20260503221649 | 64 | 247 | 2.0 | 3.0 | 0.00 | 0.00 | 0.00 | 74 | 1015.0 |
| 20260503221145 | 64 | 247 | 0.0 | 2.0 | 0.00 | 0.00 | 0.00 | 73 | 1015.0 |
| 20260503220642 | 65 | 257 | 2.0 | 2.0 | 0.00 | 0.00 | 0.00 | 73 | 1015.1 |
| 20260503220138 | 65 | 239 | 2.0 | 2.0 | 0.00 | 0.00 | 0.00 | 72 | 1015.1 |
| 20260503215636 | 66 | 235 | 0.0 | 3.0 | 0.00 | 0.00 | 0.00 | 70 | 1015.3 |
| 20260503215132 | 66 | 248 | 1.0 | 2.0 | 0.00 | 0.00 | 0.00 | 71 | 1015.2 |
| 20260503214631 | 66 | 214 | 1.0 | 3.0 | 0.00 | 0.00 | 0.00 | 72 | 1015.3 |
| 20260503214127 | 66 | 245 | 2.0 | 3.0 | 0.00 | 0.00 | 0.00 | 71 | 1015.3 |
| 20260503213626 | 66 | 246 | 2.0 | 2.0 | 0.00 | 0.00 | 0.00 | 72 | 1015.5 |
| 20260503213122 | 66 | 241 | 1.0 | 3.0 | 0.00 | 0.00 | 0.00 | 73 | 1015.4 |
| 20260503212620 | 66 | 254 | 2.0 | 3.0 | 0.00 | 0.00 | 0.00 | 73 | 1015.2 |
| 20260503212117 | 67 | 310 | 0.0 | 3.0 | 0.00 | 0.00 | 0.00 | 73 | 1015.6 |
| 20260503211615 | 66 | 241 | 2.0 | 3.0 | 0.00 | 0.00 | 0.00 | 73 | 1015.4 |
| 20260503211110 | 66 | 120 | 0.0 | 3.0 | 0.00 | 0.00 | 0.00 | 74 | 1015.6 |
| 20260503210607 | 66 | 234 | 3.0 | 3.0 | 0.00 | 0.00 | 0.00 | 75 | 1015.7 |
| 20260503205559 | 65 | 228 | 2.0 | 3.0 | 0.00 | 0.00 | 0.00 | 79 | 1015.8 |
| 20260503205055 | 65 | 207 | 0.0 | 2.0 | 0.00 | 0.00 | 0.00 | 79 | 1015.7 |
| 20260503204553 | 66 | 275 | 1.0 | 3.0 | 0.00 | 0.00 | 0.00 | 78 | 1015.9 |
| 20260503204050 | 66 | 229 | 3.0 | 3.0 | 0.00 | 0.00 | 0.00 | 79 | 1015.9 |
| 20260503203547 | 66 | 222 | 3.0 | 4.0 | 0.00 | 0.00 | 0.00 | 78 | 1016.0 |
| 20260503203044 | 66 | 197 | 2.0 | 4.0 | 0.00 | 0.00 | 0.00 | 79 | 1016.1 |
| 20260503202542 | 66 | 240 | 3.0 | 5.0 | 0.00 | 0.00 | 0.00 | 79 | 1016.1 |
| 20260503202039 | 65 | 224 | 2.0 | 4.0 | 0.00 | 0.00 | 0.00 | 80 | 1016.1 |
| 20260503201537 | 65 | 244 | 1.0 | 4.0 | 0.00 | 0.00 | 0.00 | 81 | 1016.0 |
| 20260503201034 | 64 | 244 | 2.0 | 3.0 | 0.00 | 0.00 | 0.00 | 84 | 1016.1 |
| 20260503200530 | 63 | 229 | 2.0 | 3.0 | 0.00 | 0.00 | 0.00 | 85 | 1016.2 |
| 20260503200027 | 63 | 229 | 3.0 | 4.0 | 0.00 | 0.00 | 0.00 | 84 | 1016.3 |
| 20260503195524 | 64 | 264 | 2.0 | 3.0 | 0.00 | 0.00 | 0.00 | 83 | 1016.2 |
| 20260503195021 | 63 | 212 | 2.0 | 3.0 | 0.00 | 0.00 | 0.00 | 84 | 1016.2 |
| 20260503194519 | 63 | 256 | 1.0 | 3.0 | 0.00 | 0.00 | 0.00 | 85 | 1016.3 |
| 20260503194018 | 64 | 130 | 0.0 | 1.0 | 0.00 | 0.00 | 0.00 | 84 | 1016.4 |
| 20260503193515 | 64 | 255 | 2.0 | 2.0 | 0.00 | 0.00 | 0.00 | 84 | 1016.5 |
| 20260503193010 | 64 | 248 | 2.0 | 2.0 | 0.00 | 0.00 | 0.00 | 83 | 1016.4 |
| 20260503192507 | 64 | 207 | 2.0 | 3.0 | 0.00 | 0.00 | 0.00 | 83 | 1016.4 |
| 20260503192002 | 64 | 182 | 1.0 | 2.0 | 0.00 | 0.00 | 0.00 | 85 | 1016.5 |
| 20260503191500 | 64 | 192 | 0.0 | 1.0 | 0.00 | 0.00 | 0.00 | 84 | 1016.5 |
| 20260503190956 | 64 | 201 | 1.0 | 2.0 | 0.00 | 0.00 | 0.00 | 85 | 1016.8 |
| 20260503190453 | 64 | 215 | 1.0 | 2.0 | 0.00 | 0.00 | 0.00 | 85 | 1016.6 |
| 20260503185950 | 64 | 212 | 0.0 | 2.0 | 0.00 | 0.00 | 0.00 | 85 | 1016.7 |
| 20260503185447 | 64 | 185 | 1.0 | 2.0 | 0.00 | 0.00 | 0.00 | 85 | 1016.5 |
| 20260503184946 | 64 | 134 | 0.0 | 2.0 | 0.00 | 0.00 | 0.00 | 86 | 1016.6 |
| 20260503184443 | 64 | 144 | 2.0 | 2.0 | 0.00 | 0.00 | 0.00 | 85 | 1016.7 |
| 20260503183939 | 63 | 205 | 1.0 | 3.0 | 0.00 | 0.00 | 0.00 | 86 | 1016.4 |
| 20260503183436 | 63 | 224 | 1.0 | 2.0 | 0.00 | 0.00 | 0.00 | 86 | 1016.6 |
| 20260503182933 | 63 | 184 | 0.0 | 1.0 | 0.00 | 0.00 | 0.00 | 86 | 1016.5 |
| 20260503182432 | 64 | 169 | 0.0 | 0.0 | 0.00 | 0.00 | 0.00 | 86 | 1016.7 |
| 20260503181929 | 64 | 214 | 0.0 | 1.0 | 0.00 | 0.00 | 0.00 | 86 | 1016.7 |
| 20260503181426 | 64 | 207 | 0.0 | 2.0 | 0.00 | 0.00 | 0.00 | 85 | 1016.7 |
| 20260503180921 | 64 | 155 | 1.0 | 2.0 | 0.00 | 0.00 | 0.00 | 86 | 1016.8 |
| 20260503180420 | 64 | 196 | 1.0 | 3.0 | 0.00 | 0.00 | 0.00 | 86 | 1016.7 |
| 20260503175917 | 63 | 219 | 1.0 | 1.0 | 0.00 | 0.00 | 0.00 | 86 | 1016.9 |
| 20260503175415 | 63 | 222 | 0.0 | 1.0 | 0.00 | 0.00 | 0.00 | 86 | 1016.8 |
| 20260503174910 | 64 | 285 | 0.0 | 0.0 | 0.00 | 0.00 | 0.00 | 86 | 1016.9 |
| 20260503174408 | 64 | 276 | 0.0 | 2.0 | 0.00 | 0.00 | 0.00 | 86 | 1016.9 |
| 20260503173903 | 64 | 218 | 0.0 | 2.0 | 0.00 | 0.00 | 0.00 | 85 | 1016.9 |
| 20260503173359 | 64 | 194 | 0.0 | 2.0 | 0.00 | 0.00 | 0.00 | 85 | 1017.0 |